Regional Weather Roundup
Issued by NWS

Home | Current Version | Previous Version | Graphics & Text | Print | Product List | Glossary On
Versions: 1 2 3 4 5 6 7 8 9 10 11 12 13 14 15 16 17 18 19 20 21 22 23 24 25 26 27 28 29 30 31 32 33 34 35 36 37 38 39 40 41 42 43 44 45 46 47 48 49 50
342
ASUS43 KLMK 201702
RWRKY
KENTUCKY REGIONAL WEATHER ROUNDUP
NATIONAL WEATHER SERVICE LOUISVILLE KY
100 PM EDT FRI OCT 20 2017

NOTE "FAIR" INDICATES FEW OR NO CLOUDS BELOW 12,000 FEET
WITH NO SIGNIFICANT WEATHER AND/OR OBSTRUCTIONS TO VISIBILITY.

KYZ001>023-026-027-061>063-070>075-201800-
WESTERN AND SOUTH CENTRAL KENTUCKY

CITY           SKY/WX    TMP DP  RH WIND       PRES   REMARKS
PADUCAH        SUNNY     73  51  46 VRB3      30.23F
HENDERSON      SUNNY     74  53  48 S7        30.26F
OWENSBORO      SUNNY     73  52  47 S6        30.27
HOPKINSVILLE   SUNNY     71  51  47 S3        30.26F
BOWLING GREEN  SUNNY     73  50  44 CALM      30.29F
GLASGOW        NOT AVBL
$$

KYZ024-025-028>034-038-045-046-053-201800-
NORTH CENTRAL KENTUCKY

CITY           SKY/WX    TMP DP  RH WIND       PRES   REMARKS
LOUISVILLE/SDF MOSUNNY   72  52  49 CALM      30.27F
LOUISVILLE/LOU SUNNY     72  53  51 VRB3      30.28F
FORT KNOX      SUNNY     73  50  43 S5        30.26F
$$

KYZ035>037-039>044-047>052-055>060-089>105-201800-
NORTHEAST KENTUCKY

CITY           SKY/WX    TMP DP  RH WIND       PRES   REMARKS
LEXINGTON      SUNNY     72  51  47 S5        30.30F
COVINGTON      MOSUNNY   71  56  58 SE7       30.28F
FRANKFORT      SUNNY     72  50  45 VRB6      30.28F
$$

KYZ054-064>069-076>088-106>120-201800-
SOUTHEAST KENTUCKY

CITY           SKY/WX    TMP DP  RH WIND       PRES   REMARKS
JACKSON        SUNNY     69  51  52 MISG      30.32F
LONDON         SUNNY     70  49  47 NE5       30.30F
SOMERSET       NOT AVBL
MIDDLESBORO    SUNNY     65  51  60 CALM      30.32F
MONTICELLO     SUNNY     71  51  49 NW8       30.32F
$$





USA.gov is the U.S. government's official web portal to all federal, state and local government web resources and services.